Location: Monrovia
(34.7865°N, 86.7139°W)
Time: 21:46:11
(UTC+00:00)

Cosmos 1869 - Pass Details

Date: 14 July 2020
Orbit: 520 x 563 km, 82.5° (Epoch: 08 August)

Event Time Altitude Azimuth Distance (km) Brightness Sun altitude
Rises 03:31:03 0° 343° (NNW) 2,730 8.0 -24.3°
Reaches altitude 10° 03:33:18 10° 336° (NNW) 1,838 7.0 -24.6°
Maximum altitude 03:37:03 37° 268° (W) 870 4.5 -25.0°
Enters shadow 03:37:25 37° 255° (WSW) 884 4.4 -25.1°
